Regional Weather Roundup
Issued by NWS

Home | Current Version | Previous Version | Text Only | Print | Product List | Glossary Off
Versions: 1 2 3 4 5 6 7 8 9 10 11 12 13 14 15 16 17 18 19 20 21 22 23 24 25 26 27 28 29 30 31 32 33 34 35 36 37 38 39 40 41 42 43 44 45 46 47 48 49 50

000
ASUS45 KBOU 230907
RWRCO

WEATHER ROUNDUP FOR COLORADO
NATIONAL WEATHER SERVICE DENVER/BOULDER CO
300 AM MDT TUE SEP 23 2014

NOTE: "FAIR" INDICATES FEW OR NO CLOUDS BELOW 12000 FEET WITH NO
SIGNIFICANT WEATHER AND/OR OBSTRUCTIONS TO VISIBILITY.

COZ001>005-013-030-031-231000-
...NORTHWEST COLORADO...

CITY           SKY/WX    TMP DP  RH WIND       PRES   REMARKS
CRAIG          MOCLDY    52  48  86 E3        30.24S
HAYDEN         CLOUDY    52  46  82 E7        30.25S
MEEKER         PTCLDY    51  48  89 NE3       30.25F
MOUNT WERNER   NOT AVBL
STEAMBOAT SPGS MOCLDY    50  48  92 CALM      30.26F
WALDEN         CLOUDY    50  43  76 SW7       30.30F
$$

COZ006>008-011-231000-
...WEST CENTRAL VALLEYS...

CITY           SKY/WX    TMP DP  RH WIND       PRES   REMARKS
GRAND JUNCTION PTCLDY    57  52  83 SE9       30.16S
MONTROSE       PTCLDY    58  49  72 SE5       30.25S
EAGLE          CLOUDY    52  52 100 NE5       30.29F
RIFLE          CLOUDY    57  51  80 S3        30.22S
DELTA          CLOUDY    62  53  73 NE5       30.21S HAZE
NUCLA          PTCLDY    54  45  71 E6        30.28S
$$

COZ017>023-064>068-231000-
...SOUTHWEST COLORADO...

CITY           SKY/WX    TMP DP  RH WIND       PRES   REMARKS
DURANGO        CLEAR     48  44  86 CALM      30.31S
CORTEZ         CLEAR     48  45  89 E3        30.26F
PAGOSA SPRINGS CLEAR     47  46  97 CALM      30.38S
TELLURIDE      NOT AVBL
WOLF CREEK PAS FOG       37  37 100 SW20G25   30.59S VSB 1/2
$$

COZ009-010-012-014-032>034-037-058>063-231000-
...CENTRAL COLORADO...

CITY           SKY/WX    TMP DP  RH WIND       PRES   REMARKS
ASPEN          CLOUDY    49  44  83 S6        30.33F
BUENA VISTA    PTCLDY    45  41  86 CALM      30.33S
COPPER MTN     PTCLDY    43  34  70 SW10G17   30.55S
BERTHOUD PASS  CLOUDY    34  32  93 W36G54    30.51F WCI  19
COTTONWOOD PAS CLOUDY    52  37  58 CALM      30.43S
GUNNISON       MOCLDY    48  43  81 CALM      30.38S
KREMMLING      CLOUDY    52  45  76 E7        30.31F
LEADVILLE      MOCLDY    47  36  65 N8        30.43S
MONARCH PASS   LGT RAIN  39  37  93 W33       30.64F VSB<1/4
SALIDA         PTCLDY    55  45  67 N5        30.37S
SUNLIGHT       CLOUDY    45  43  93 CALM      30.50F
WILKERSON PASS NOT AVBL
$$

COZ069>075-231000-
...SAN LUIS VALLEY/SANGRE DE CRISTO MOUNTAINS...

CITY           SKY/WX    TMP DP  RH WIND       PRES   REMARKS
ALAMOSA        CLEAR     43  40  89 W3        30.33F
LA VETA PASS   MOCLDY    45  43  93 SW7       30.45F
SAGUACHE       CLEAR     48  43  81 N8        30.35F
$$

COZ035-036-038>040-231000-
...NORTHERN COLORADO FRONT RANGE...

CITY           SKY/WX    TMP DP  RH WIND       PRES   REMARKS
DENVER INTL AP CLOUDY    58  50  75 S14       30.12F
DMNS CITY PARK   N/A     58  51  79 SE3       30.13S
AURORA         PTCLDY    56  49  77 S8        30.15F
FRONT RANGE AP MOCLDY    55  52  88 S6        30.14F
ERIE MUNI ARPT NOT AVBL
BOULDER MUN AP CLOUDY    59  46  63 W3        30.12F
CENTENNIAL     MOCLDY    58  49  72 S7        30.16F
BROOMFIELD     CLOUDY    61  50  67 SE5       30.15S
FORT COLLINS   PTCLDY    55  46  71 CALM      30.13S
LONGMONT       MOCLDY    57  48  72 W5        30.13F
$$

COZ041-046-047-076>085-087-088-231000-
...PIKES PEAK/PALMER DIVIDE AND SOUTHERN FOOTHILLS...

CITY           SKY/WX    TMP DP  RH WIND       PRES   REMARKS
COLO. SPRINGS  CLEAR     52  45  77 N9        30.20F
A. F. ACADEMY  CLEAR     48  45  89 N6        30.21F
ELLICOTT       NOT AVBL
FALCON         CLEAR     53  41  65 N5        30.24F
FORT CARSON    CLEAR     53  46  79 NW9       30.17F
LIMON          CLEAR     50  49  96 CALM      30.14F
MONUMENT HILL  PTCLDY    46  43  87 S7        30.23F
TRINIDAD       CLEAR     62  54  74 W17       30.17S
$$

COZ042>045-048>051-090-091-231000-
...NORTHEAST COLORADO...

CITY           SKY/WX    TMP DP  RH WIND       PRES   REMARKS
GREELEY ARPT   MOCLDY    57  46  67 CALM      30.11F
AKRON          MOCLDY    57  56  96 E3        30.08F
BURLINGTON     MOCLDY    58  56  93 CALM      30.08S
WRAY           MOCLDY   N/A N/A N/A NW6       30.07F
STERLING       CLOUDY    61  59  94 SW6       30.04F
HOLYOKE        DRIZZLE   61  57  88 S10       30.03F
FORT MORGAN    MOCLDY    55  54  94 W3        30.08F
$$

COZ086-089-092>099-231000-
...SOUTHEAST COLORADO...

CITY           SKY/WX    TMP DP  RH WIND       PRES   REMARKS
PUEBLO         CLEAR     55  50  83 CALM      30.11F
LA JUNTA       CLEAR     62  57  83 VRB7      30.06F
LAMAR          PTCLDY    59  56  89 CALM      30.03F
SPRINGFIELD      N/A     63  58  83 S17       30.08F
$$



USA.gov is the U.S. government's official web portal to all federal, state and local government web resources and services.